QPF
0.00 0.00 0.00 0.00 0.00 0.00 0.01 0.00 0.00 0.01 0.00 0.00 0.01 0.01 0.01 0.01 0.01 0.01 0.01 0.00 0.00 0.01 0.01 0.01 0.01 0.02 0.04 0.05 0.05 0.06 0.06 0.04 0.05 0.05 0.06 0.03 0.03 0.03 0.02 0.03 0.04 0.05 0.05 0.05 0.04 0.04 0.04 0.04 0.05
0.00 0.00 0.00 0.00 0.00 0.00 0.00 0.00 0.00 0.00 0.00 0.00 0.00 0.01 0.01 0.00 0.00 0.00 0.00 0.00 0.00 0.01 0.01 0.01 0.01 0.03 0.04 0.05 0.05 0.07 0.08 0.06 0.05 0.06 0.07 0.06 0.04 0.04 0.03 0.03 0.03 0.03 0.03 0.04 0.04 0.04 0.03 0.03 0.05
0.00 0.00 0.01 0.00 0.00 0.00 0.00 0.00 0.00 0.00 0.00 0.00 0.00 0.00 0.01 0.01 0.00 0.00 0.00 0.00 0.00 0.00 0.01 0.01 0.02 0.04 0.04 0.05 0.06 0.08 0.09 0.08 0.08 0.08 0.09 0.09 0.08 0.07 0.05 0.06 0.05 0.06 0.06 0.05 0.04 0.03 0.04 0.04 0.04
0.00 0.00 0.00 0.00 0.00 0.00 0.00 0.00 0.00 0.00 0.00 0.00 0.00 0.00 0.00 0.00 0.00 0.00 0.00 0.00 0.00 0.00 0.02 0.02 0.02 0.04 0.03 0.04 0.06 0.09 0.09 0.09 0.09 0.10 0.11 0.11 0.09 0.09 0.09 0.09 0.08 0.09 0.09 0.08 0.06 0.05 0.06 0.06 0.05
0.00 0.00 0.00 0.00 0.00 0.00 0.00 0.00 0.00 0.00 0.00 0.00 0.00 0.00 0.00 0.00 0.00 0.00 0.00 0.00 0.00 0.01 0.02 0.03 0.03 0.04 0.03 0.04 0.06 0.08 0.08 0.07 0.07 0.07 0.10 0.13 0.12 0.09 0.09 0.10 0.09 0.10 0.11 0.10 0.08 0.06 0.06 0.06 0.05
0.00 0.00 0.00 0.00 0.00 0.00 0.00 0.00 0.00 0.00 0.00 0.00 0.00 0.00 0.00 0.00 0.00 0.00 0.00 0.00 0.01 0.01 0.02 0.03 0.04 0.04 0.03 0.03 0.05 0.06 0.06 0.06 0.06 0.08 0.10 0.13 0.15 0.13 0.11 0.08 0.07 0.08 0.09 0.09 0.07 0.05 0.05 0.04 0.02
0.00 0.00 0.01 0.01 0.00 0.00 0.00 0.00 0.00 0.00 0.00 0.00 0.00 0.00 0.00 0.00 0.00 0.00 0.00 0.00 0.01 0.01 0.02 0.02 0.03 0.02 0.03 0.03 0.04 0.05 0.06 0.06 0.07 0.09 0.11 0.10 0.10 0.13 0.15 0.11 0.08 0.08 0.08 0.08 0.08 0.07 0.06 0.05 0.03
0.00 0.00 0.00 0.00 0.00 0.00 0.00 0.00 0.00 0.00 0.00 0.00 0.00 0.00 0.00 0.00 0.00 0.00 0.00 0.01 0.01 0.01 0.01 0.02 0.02 0.02 0.03 0.04 0.05 0.05 0.06 0.07 0.07 0.08 0.09 0.09 0.07 0.07 0.12 0.14 0.11 0.09 0.08 0.08 0.09 0.09 0.08 0.07 0.05
0.00 0.00 0.00 0.00 0.00 0.00 0.00 0.00 0.00 0.00 0.00 0.00 0.00 0.00 0.00 0.00 0.00 0.00 0.00 0.01 0.01 0.01 0.02 0.02 0.02 0.02 0.02 0.03 0.04 0.05 0.05 0.06 0.06 0.07 0.09 0.09 0.07 0.06 0.09 0.12 0.12 0.10 0.09 0.10 0.10 0.10 0.10 0.09 0.11
0.00 0.00 0.00 0.00 0.00 0.00 0.00 0.00 0.00 0.00 0.00 0.00 0.00 0.00 0.00 0.00 0.00 0.00 0.00 0.00 0.01 0.01 0.01 0.02 0.02 0.02 0.02 0.02 0.03 0.05 0.05 0.05 0.05 0.06 0.07 0.10 0.11 0.09 0.09 0.12 0.11 0.11 0.10 0.10 0.10 0.11 0.13 0.13 0.12
0.00 0.00 0.00 0.00 0.00 0.00 0.00 0.00 0.00 0.00 0.00 0.00 0.00 0.00 0.00 0.00 0.00 0.00 0.01 0.01 0.01 0.01 0.01 0.01 0.01 0.02 0.02 0.03 0.03 0.04 0.05 0.06 0.05 0.05 0.05 0.06 0.08 0.08 0.09 0.13 0.14 0.14 0.11 0.10 0.10 0.09 0.09 0.12 0.11
0.00 0.00 0.00 0.00 0.00 0.00 0.00 0.00 0.00 0.00 0.00 0.00 0.00 0.00 0.00 0.00 0.01 0.01 0.01 0.01 0.01 0.01 0.01 0.01 0.01 0.02 0.03 0.04 0.03 0.03 0.03 0.03 0.04 0.04 0.04 0.04 0.05 0.06 0.08 0.10 0.11 0.15 0.13 0.11 0.09 0.08 0.07 0.07 0.08
0.00 0.00 0.00 0.00 0.00 0.00 0.00 0.00 0.00 0.00 0.00 0.00 0.00 0.00 0.00 0.00 0.01 0.01 0.01 0.01 0.01 0.01 0.01 0.01 0.01 0.01 0.02 0.03 0.03 0.02 0.02 0.02 0.03 0.03 0.03 0.03 0.04 0.05 0.08 0.09 0.08 0.13 0.13 0.11 0.09 0.07 0.06 0.06 0.07
0.00 0.00 0.00 0.00 0.00 0.00 0.00 0.00 0.00 0.00 0.00 0.00 0.00 0.01 0.01 0.01 0.01 0.01 0.01 0.01 0.01 0.01 0.01 0.01 0.01 0.01 0.01 0.02 0.02 0.02 0.02 0.03 0.03 0.03 0.02 0.03 0.04 0.04 0.05 0.06 0.07 0.12 0.18 0.14 0.09 0.07 0.07 0.06 0.07
0.00 0.00 0.00 0.00 0.00 0.00 0.00 0.00 0.00 0.00 0.00 0.01 0.01 0.00 0.01 0.01 0.01 0.01 0.01 0.01 0.01 0.01 0.02 0.02 0.01 0.01 0.01 0.01 0.02 0.02 0.02 0.04 0.04 0.03 0.03 0.03 0.04 0.03 0.04 0.04 0.06 0.07 0.10 0.13 0.12 0.09 0.07 0.06 0.06
0.00 0.00 0.00 0.00 0.00 0.00 0.00 0.00 0.00 0.00 0.00 0.01 0.00 0.00 0.00 0.00 0.01 0.02 0.01 0.01 0.01 0.01 0.02 0.02 0.02 0.02 0.01 0.02 0.02 0.03 0.03 0.04 0.05 0.05 0.05 0.04 0.04 0.03 0.04 0.04 0.04 0.05 0.05 0.06 0.08 0.08 0.06 0.05 0.04
0.00 0.00 0.00 0.00 0.00 0.00 0.00 0.00 0.00 0.00 0.01 0.01 0.00 0.00 0.00 0.01 0.01 0.02 0.02 0.01 0.01 0.02 0.02 0.03 0.02 0.01 0.01 0.01 0.02 0.02 0.02 0.04 0.06 0.06 0.05 0.04 0.05 0.04 0.04 0.04 0.03 0.04 0.05 0.05 0.05 0.05 0.05 0.05 0.04
0.00 0.00 0.00 0.01 0.00 0.00 0.00 0.00 0.00 0.00 0.01 0.01 0.01 0.01 0.01 0.01 0.01 0.01 0.01 0.02 0.02 0.02 0.02 0.03 0.02 0.01 0.02 0.02 0.02 0.02 0.02 0.03 0.06 0.06 0.05 0.04 0.06 0.05 0.04 0.03 0.03 0.03 0.04 0.06 0.05 0.05 0.04 0.04 0.04
0.00 0.00 0.01 0.00 0.00 0.00 0.01 0.00 0.00 0.01 0.01 0.01 0.01 0.01 0.02 0.03 0.03 0.02 0.01 0.01 0.01 0.01 0.02 0.02 0.03 0.02 0.02 0.03 0.02 0.03 0.04 0.03 0.06 0.07 0.05 0.05 0.06 0.05 0.04 0.02 0.03 0.03 0.04 0.05 0.05 0.05 0.05 0.04 0.04
0.00 0.00 0.00 0.00 0.00 0.00 0.00 0.00 0.00 0.00 0.00 0.00 0.01 0.01 0.02 0.02 0.02 0.02 0.02 0.01 0.01 0.02 0.02 0.03 0.02 0.02 0.03 0.03 0.02 0.04 0.07 0.05 0.05 0.06 0.04 0.03 0.04 0.04 0.04 0.02 0.02 0.02 0.03 0.04 0.05 0.05 0.05 0.04 0.04
0.00 0.00 0.00 0.00 0.00 0.00 0.00 0.01 0.00 0.00 0.00 0.00 0.00 0.01 0.01 0.01 0.01 0.02 0.03 0.03 0.02 0.02 0.03 0.03 0.02 0.03 0.02 0.01 0.02 0.02 0.06 0.06 0.05 0.05 0.04 0.03 0.03 0.03 0.03 0.03 0.02 0.03 0.03 0.05 0.06 0.05 0.04 0.04 0.03
0.00 0.00 0.00 0.00 0.01 0.01 0.01 0.01 0.00 0.00 0.00 0.00 0.00 0.00 0.01 0.01 0.01 0.03 0.03 0.03 0.02 0.03 0.05 0.03 0.02 0.02 0.02 0.02 0.02 0.03 0.06 0.07 0.06 0.05 0.04 0.04 0.04 0.05 0.05 0.04 0.04 0.04 0.04 0.05 0.06 0.04 0.05 0.04 0.03
0.00 0.00 0.00 0.00 0.01 0.01 0.00 0.01 0.01 0.01 0.00 0.00 0.00 0.01 0.01 0.01 0.01 0.02 0.02 0.03 0.02 0.04 0.06 0.02 0.02 0.02 0.02 0.02 0.02 0.03 0.07 0.08 0.07 0.06 0.06 0.06 0.06 0.07 0.06 0.05 0.05 0.06 0.05 0.06 0.06 0.06 0.05 0.04 0.03
0.00 0.01 0.01 0.01 0.01 0.01 0.01 0.01 0.01 0.02 0.01 0.01 0.01 0.01 0.01 0.01 0.02 0.01 0.01 0.02 0.03 0.04 0.04 0.02 0.02 0.02 0.03 0.03 0.03 0.03 0.06 0.08 0.07 0.07 0.07 0.05 0.06 0.06 0.05 0.04 0.04 0.04 0.04 0.05 0.05 0.05 0.04 0.03 0.03
0.01 0.01 0.02 0.02 0.02 0.01 0.01 0.01 0.02 0.03 0.02 0.01 0.00 0.01 0.01 0.02 0.02 0.01 0.01 0.02 0.02 0.01 0.02 0.02 0.02 0.02 0.03 0.04 0.03 0.03 0.04 0.05 0.05 0.05 0.05 0.04 0.04 0.05 0.04 0.03 0.02 0.02 0.03 0.03 0.04 0.05 0.05 0.04 0.03
0.01 0.01 0.02 0.02 0.02 0.01 0.01 0.01 0.02 0.02 0.01 0.00 0.00 0.01 0.01 0.02 0.02 0.01 0.02 0.02 0.01 0.02 0.02 0.02 0.02 0.03 0.03 0.03 0.03 0.03 0.03 0.03 0.03 0.03 0.03 0.03 0.02 0.02 0.03 0.03 0.03 0.02 0.03 0.04 0.06 0.06 0.06 0.06 0.05
0.01 0.01 0.01 0.02 0.02 0.02 0.02 0.01 0.01 0.01 0.01 0.00 0.00 0.01 0.01 0.01 0.02 0.02 0.02 0.01 0.01 0.01 0.02 0.02 0.03 0.03 0.03 0.03 0.04 0.03 0.03 0.02 0.01 0.02 0.02 0.02 0.02 0.02 0.03 0.03 0.02 0.02 0.02 0.03 0.05 0.06 0.06 0.06 0.06
0.01 0.01 0.01 0.02 0.02 0.03 0.02 0.02 0.02 0.02 0.01 0.00 0.00 0.01 0.01 0.01 0.02 0.03 0.03 0.01 0.01 0.02 0.02 0.02 0.03 0.03 0.03 0.03 0.03 0.02 0.02 0.02 0.02 0.02 0.02 0.02 0.02 0.02 0.03 0.02 0.02 0.02 0.02 0.03 0.05 0.05 0.04 0.04 0.03
0.01 0.01 0.02 0.03 0.02 0.03 0.03 0.03 0.02 0.01 0.01 0.01 0.01 0.01 0.01 0.02 0.02 0.02 0.03 0.02 0.02 0.02 0.03 0.03 0.03 0.03 0.03 0.03 0.03 0.03 0.02 0.02 0.01 0.01 0.01 0.02 0.02 0.02 0.02 0.02 0.02 0.02 0.02 0.03 0.03 0.04 0.03 0.03 0.04
0.01 0.01 0.01 0.03 0.03 0.03 0.03 0.03 0.01 0.00 0.00 0.01 0.02 0.01 0.01 0.01 0.01 0.02 0.02 0.03 0.03 0.04 0.05 0.04 0.02 0.02 0.03 0.03 0.02 0.03 0.03 0.02 0.02 0.01 0.01 0.01 0.01 0.02 0.02 0.02 0.02 0.02 0.02 0.03 0.03 0.03 0.03 0.04 0.05
MSLP
1011.06 1011.46 1011.87 1012.19 1012.33 1012.24 1011.94 1011.48 1010.95 1010.49 1010.16 1010.02 1010.05 1010.19 1010.35 1010.43 1010.38 1010.19 1009.91 1009.64 1009.48 1009.52 1009.79 1010.29 1010.93 1011.60 1012.19 1012.61 1012.82 1012.84 1012.74 1012.61 1012.53 1012.57 1012.73 1012.99 1013.28 1013.55 1013.74 1013.83 1013.84 1013.80 1013.77 1013.80 1013.89 1014.05 1014.25 1014.45 1014.60
1011.05 1011.49 1011.93 1012.25 1012.37 1012.25 1011.90 1011.37 1010.77 1010.22 1009.79 1009.55 1009.49 1009.56 1009.68 1009.76 1009.76 1009.65 1009.49 1009.35 1009.32 1009.47 1009.83 1010.39 1011.07 1011.76 1012.36 1012.79 1013.01 1013.06 1012.98 1012.87 1012.80 1012.82 1012.95 1013.15 1013.39 1013.60 1013.74 1013.80 1013.80 1013.77 1013.77 1013.83 1013.96 1014.17 1014.41 1014.63 1014.81
1011.15 1011.62 1012.05 1012.36 1012.45 1012.29 1011.89 1011.31 1010.65 1010.03 1009.52 1009.20 1009.05 1009.05 1009.12 1009.20 1009.23 1009.19 1009.13 1009.10 1009.18 1009.43 1009.87 1010.47 1011.18 1011.88 1012.49 1012.93 1013.18 1013.26 1013.21 1013.13 1013.06 1013.07 1013.17 1013.33 1013.51 1013.67 1013.77 1013.82 1013.82 1013.82 1013.85 1013.96 1014.14 1014.38 1014.64 1014.87 1015.05
1011.33 1011.80 1012.21 1012.47 1012.52 1012.33 1011.90 1011.30 1010.61 1009.95 1009.39 1009.01 1008.80 1008.73 1008.76 1008.82 1008.86 1008.86 1008.87 1008.93 1009.09 1009.42 1009.91 1010.54 1011.26 1011.97 1012.58 1013.04 1013.31 1013.42 1013.42 1013.36 1013.31 1013.32 1013.40 1013.52 1013.66 1013.78 1013.87 1013.91 1013.94 1013.98 1014.07 1014.22 1014.44 1014.70 1014.96 1015.19 1015.34
1011.52 1011.96 1012.32 1012.54 1012.54 1012.32 1011.89 1011.29 1010.61 1009.95 1009.39 1008.98 1008.73 1008.63 1008.61 1008.64 1008.67 1008.70 1008.74 1008.85 1009.07 1009.43 1009.94 1010.59 1011.30 1012.00 1012.61 1013.08 1013.38 1013.53 1013.56 1013.54 1013.52 1013.54 1013.61 1013.71 1013.83 1013.94 1014.02 1014.09 1014.15 1014.24 1014.38 1014.58 1014.83 1015.10 1015.34 1015.54 1015.65
1011.66 1012.04 1012.34 1012.50 1012.46 1012.23 1011.81 1011.25 1010.62 1010.01 1009.48 1009.09 1008.83 1008.69 1008.64 1008.64 1008.65 1008.67 1008.73 1008.85 1009.09 1009.46 1009.97 1010.59 1011.28 1011.96 1012.56 1013.03 1013.35 1013.54 1013.63 1013.65 1013.67 1013.72 1013.79 1013.89 1014.00 1014.11 1014.20 1014.29 1014.40 1014.54 1014.72 1014.96 1015.23 1015.49 1015.71 1015.86 1015.92
1011.71 1012.02 1012.23 1012.32 1012.25 1012.01 1011.63 1011.13 1010.59 1010.06 1009.60 1009.25 1009.00 1008.86 1008.79 1008.76 1008.74 1008.75 1008.79 1008.90 1009.12 1009.47 1009.95 1010.54 1011.19 1011.83 1012.41 1012.88 1013.22 1013.45 1013.59 1013.67 1013.74 1013.82 1013.91 1014.02 1014.14 1014.25 1014.35 1014.47 1014.60 1014.78 1015.00 1015.26 1015.53 1015.78 1015.97 1016.08 1016.09
1011.67 1011.88 1012.00 1012.02 1011.92 1011.69 1011.35 1010.93 1010.49 1010.06 1009.68 1009.39 1009.18 1009.04 1008.96 1008.90 1008.86 1008.84 1008.86 1008.95 1009.14 1009.45 1009.88 1010.41 1011.01 1011.60 1012.15 1012.62 1012.99 1013.26 1013.45 1013.59 1013.72 1013.84 1013.96 1014.09 1014.21 1014.32 1014.43 1014.55 1014.70 1014.89 1015.13 1015.40 1015.67 1015.91 1016.08 1016.15 1016.13
1011.54 1011.66 1011.69 1011.64 1011.50 1011.28 1010.99 1010.65 1010.30 1009.97 1009.68 1009.45 1009.28 1009.16 1009.07 1009.00 1008.93 1008.88 1008.87 1008.93 1009.09 1009.35 1009.73 1010.20 1010.74 1011.29 1011.81 1012.27 1012.65 1012.96 1013.21 1013.42 1013.61 1013.78 1013.94 1014.08 1014.21 1014.32 1014.42 1014.53 1014.67 1014.86 1015.09 1015.35 1015.61 1015.84 1016.00 1016.07 1016.03
1011.37 1011.40 1011.35 1011.24 1011.08 1010.86 1010.61 1010.33 1010.06 1009.81 1009.59 1009.41 1009.27 1009.15 1009.06 1008.97 1008.88 1008.82 1008.78 1008.82 1008.94 1009.16 1009.49 1009.91 1010.39 1010.90 1011.39 1011.84 1012.24 1012.60 1012.90 1013.17 1013.42 1013.65 1013.85 1014.02 1014.16 1014.26 1014.34 1014.43 1014.54 1014.70 1014.91 1015.15 1015.41 1015.64 1015.80 1015.87 1015.86
1011.18 1011.15 1011.04 1010.88 1010.69 1010.47 1010.25 1010.02 1009.79 1009.59 1009.41 1009.25 1009.12 1009.00 1008.89 1008.79 1008.69 1008.60 1008.56 1008.58 1008.68 1008.87 1009.16 1009.54 1009.98 1010.44 1010.91 1011.36 1011.78 1012.17 1012.53 1012.87 1013.18 1013.47 1013.72 1013.92 1014.07 1014.17 1014.24 1014.29 1014.37 1014.49 1014.67 1014.89 1015.13 1015.36 1015.55 1015.65 1015.67
1011.00 1010.92 1010.77 1010.59 1010.38 1010.16 1009.95 1009.74 1009.53 1009.34 1009.16 1009.00 1008.85 1008.72 1008.58 1008.46 1008.34 1008.25 1008.20 1008.21 1008.30 1008.48 1008.75 1009.10 1009.51 1009.95 1010.41 1010.86 1011.30 1011.72 1012.13 1012.53 1012.91 1013.26 1013.56 1013.81 1013.99 1014.09 1014.15 1014.19 1014.23 1014.32 1014.46 1014.65 1014.88 1015.12 1015.33 1015.47 1015.54
1010.81 1010.71 1010.56 1010.37 1010.15 1009.94 1009.72 1009.51 1009.29 1009.08 1008.88 1008.69 1008.51 1008.33 1008.17 1008.01 1007.88 1007.77 1007.72 1007.73 1007.82 1008.00 1008.27 1008.61 1009.01 1009.44 1009.89 1010.35 1010.80 1011.25 1011.71 1012.16 1012.60 1013.02 1013.38 1013.69 1013.91 1014.05 1014.12 1014.15 1014.18 1014.23 1014.35 1014.52 1014.74 1014.98 1015.21 1015.39 1015.51
1010.59 1010.51 1010.37 1010.19 1009.99 1009.78 1009.56 1009.33 1009.09 1008.84 1008.60 1008.35 1008.12 1007.90 1007.69 1007.50 1007.34 1007.22 1007.16 1007.17 1007.27 1007.45 1007.73 1008.07 1008.48 1008.92 1009.38 1009.84 1010.31 1010.79 1011.27 1011.77 1012.26 1012.73 1013.17 1013.54 1013.82 1014.01 1014.13 1014.18 1014.22 1014.27 1014.36 1014.52 1014.72 1014.97 1015.21 1015.43 1015.59
1010.33 1010.27 1010.16 1010.01 1009.84 1009.64 1009.41 1009.16 1008.89 1008.60 1008.31 1008.02 1007.73 1007.46 1007.21 1006.99 1006.80 1006.66 1006.58 1006.59 1006.68 1006.87 1007.16 1007.52 1007.94 1008.40 1008.87 1009.35 1009.84 1010.33 1010.83 1011.35 1011.87 1012.40 1012.89 1013.33 1013.69 1013.96 1014.14 1014.24 1014.31 1014.38 1014.47 1014.62 1014.81 1015.05 1015.30 1015.53 1015.72
1010.00 1009.98 1009.91 1009.80 1009.66 1009.47 1009.25 1008.98 1008.68 1008.35 1008.02 1007.68 1007.36 1007.05 1006.77 1006.51 1006.29 1006.12 1006.02 1006.01 1006.09 1006.29 1006.58 1006.96 1007.40 1007.89 1008.38 1008.88 1009.37 1009.87 1010.37 1010.90 1011.44 1011.99 1012.53 1013.03 1013.46 1013.82 1014.08 1014.27 1014.39 1014.50 1014.60 1014.75 1014.93 1015.16 1015.40 1015.64 1015.85
1009.62 1009.64 1009.61 1009.54 1009.43 1009.26 1009.03 1008.75 1008.42 1008.07 1007.71 1007.35 1007.00 1006.67 1006.36 1006.08 1005.83 1005.63 1005.50 1005.46 1005.53 1005.71 1006.01 1006.40 1006.87 1007.38 1007.90 1008.42 1008.92 1009.41 1009.90 1010.41 1010.94 1011.50 1012.06 1012.60 1013.11 1013.55 1013.91 1014.18 1014.38 1014.54 1014.68 1014.83 1015.01 1015.22 1015.46 1015.69 1015.90
1009.22 1009.27 1009.28 1009.25 1009.16 1009.00 1008.76 1008.46 1008.12 1007.74 1007.36 1006.98 1006.63 1006.30 1005.98 1005.69 1005.42 1005.20 1005.04 1004.96 1005.00 1005.16 1005.45 1005.85 1006.34 1006.87 1007.42 1007.95 1008.46 1008.94 1009.41 1009.89 1010.39 1010.93 1011.49 1012.06 1012.62 1013.13 1013.58 1013.94 1014.23 1014.46 1014.64 1014.81 1014.99 1015.19 1015.41 1015.63 1015.84
1008.83 1008.91 1008.96 1008.96 1008.88 1008.72 1008.47 1008.14 1007.75 1007.35 1006.95 1006.57 1006.22 1005.89 1005.59 1005.30 1005.03 1004.79 1004.59 1004.48 1004.49 1004.62 1004.89 1005.30 1005.79 1006.35 1006.92 1007.47 1007.98 1008.45 1008.90 1009.33 1009.79 1010.29 1010.83 1011.41 1012.00 1012.57 1013.10 1013.55 1013.93 1014.23 1014.47 1014.67 1014.86 1015.05 1015.25 1015.46 1015.66
1008.49 1008.61 1008.70 1008.72 1008.65 1008.46 1008.17 1007.79 1007.35 1006.90 1006.47 1006.07 1005.72 1005.42 1005.13 1004.86 1004.60 1004.35 1004.14 1004.01 1003.98 1004.08 1004.33 1004.72 1005.22 1005.79 1006.38 1006.95 1007.46 1007.92 1008.34 1008.74 1009.15 1009.60 1010.12 1010.68 1011.29 1011.91 1012.50 1013.04 1013.50 1013.88 1014.18 1014.42 1014.63 1014.82 1015.01 1015.21 1015.41
1008.20 1008.38 1008.51 1008.56 1008.48 1008.26 1007.91 1007.45 1006.93 1006.40 1005.91 1005.48 1005.12 1004.82 1004.57 1004.32 1004.08 1003.85 1003.64 1003.49 1003.44 1003.52 1003.74 1004.11 1004.61 1005.18 1005.77 1006.35 1006.87 1007.32 1007.72 1008.09 1008.46 1008.88 1009.36 1009.92 1010.54 1011.19 1011.84 1012.45 1013.00 1013.45 1013.82 1014.11 1014.34 1014.54 1014.73 1014.92 1015.11
1007.94 1008.20 1008.40 1008.48 1008.39 1008.13 1007.69 1007.13 1006.50 1005.87 1005.29 1004.79 1004.40 1004.10 1003.86 1003.65 1003.45 1003.25 1003.07 1002.92 1002.86 1002.92 1003.12 1003.47 1003.94 1004.49 1005.08 1005.66 1006.18 1006.63 1007.02 1007.37 1007.72 1008.12 1008.59 1009.14 1009.77 1010.46 1011.16 1011.84 1012.46 1012.99 1013.43 1013.77 1014.04 1014.26 1014.45 1014.64 1014.82
1007.68 1008.04 1008.31 1008.42 1008.34 1008.02 1007.50 1006.82 1006.06 1005.30 1004.60 1004.02 1003.57 1003.25 1003.02 1002.85 1002.70 1002.56 1002.42 1002.30 1002.25 1002.30 1002.48 1002.79 1003.23 1003.75 1004.32 1004.87 1005.39 1005.83 1006.22 1006.57 1006.92 1007.31 1007.78 1008.35 1009.00 1009.73 1010.48 1011.23 1011.92 1012.53 1013.03 1013.43 1013.74 1013.98 1014.18 1014.36 1014.54
1007.35 1007.82 1008.17 1008.33 1008.25 1007.89 1007.29 1006.49 1005.59 1004.69 1003.86 1003.18 1002.67 1002.32 1002.10 1001.96 1001.88 1001.80 1001.72 1001.66 1001.63 1001.69 1001.84 1002.12 1002.51 1002.98 1003.50 1004.01 1004.50 1004.94 1005.32 1005.68 1006.04 1006.45 1006.94 1007.53 1008.22 1008.99 1009.80 1010.61 1011.37 1012.04 1012.60 1013.06 1013.41 1013.68 1013.89 1014.07 1014.24
1006.92 1007.47 1007.90 1008.11 1008.04 1007.65 1006.98 1006.09 1005.07 1004.04 1003.10 1002.32 1001.74 1001.36 1001.15 1001.05 1001.03 1001.03 1001.03 1001.02 1001.04 1001.11 1001.25 1001.48 1001.80 1002.21 1002.66 1003.12 1003.56 1003.97 1004.35 1004.71 1005.10 1005.53 1006.06 1006.69 1007.41 1008.23 1009.09 1009.95 1010.76 1011.49 1012.11 1012.62 1013.01 1013.31 1013.54 1013.73 1013.90
1006.34 1006.96 1007.45 1007.69 1007.63 1007.23 1006.52 1005.56 1004.47 1003.34 1002.32 1001.47 1000.84 1000.44 1000.24 1000.19 1000.23 1000.31 1000.39 1000.45 1000.51 1000.59 1000.72 1000.90 1001.16 1001.48 1001.85 1002.23 1002.62 1002.99 1003.35 1003.71 1004.11 1004.58 1005.14 1005.80 1006.57 1007.42 1008.32 1009.23 1010.08 1010.86 1011.52 1012.07 1012.50 1012.83 1013.08 1013.29 1013.47
1005.66 1006.29 1006.78 1007.04 1006.99 1006.59 1005.86 1004.88 1003.76 1002.61 1001.55 1000.67 1000.03 999.63 999.46 999.45 999.55 999.70 999.84 999.96 1000.06 1000.15 1000.26 1000.40 1000.59 1000.83 1001.10 1001.41 1001.72 1002.04 1002.37 1002.72 1003.13 1003.62 1004.21 1004.90 1005.70 1006.58 1007.50 1008.43 1009.31 1010.11 1010.81 1011.38 1011.85 1012.21 1012.50 1012.73 1012.94
1004.92 1005.49 1005.94 1006.17 1006.10 1005.70 1005.00 1004.05 1002.95 1001.84 1000.81 999.96 999.35 998.99 998.85 998.88 999.02 999.21 999.39 999.55 999.67 999.76 999.84 999.94 1000.07 1000.23 1000.42 1000.65 1000.89 1001.16 1001.46 1001.80 1002.21 1002.71 1003.31 1004.02 1004.84 1005.73 1006.66 1007.59 1008.48 1009.29 1010.00 1010.59 1011.09 1011.48 1011.81 1012.09 1012.34
1004.20 1004.64 1004.99 1005.14 1005.03 1004.64 1003.97 1003.08 1002.08 1001.06 1000.14 999.38 998.85 998.54 998.43 998.49 998.64 998.83 999.02 999.17 999.27 999.34 999.40 999.45 999.53 999.63 999.77 999.94 1000.14 1000.37 1000.65 1000.98 1001.39 1001.89 1002.50 1003.22 1004.03 1004.91 1005.84 1006.75 1007.63 1008.44 1009.15 1009.76 1010.28 1010.71 1011.08 1011.41 1011.72
1003.59 1003.85 1004.03 1004.06 1003.89 1003.48 1002.85 1002.07 1001.20 1000.34 999.57 998.95 998.52 998.28 998.22 998.27 998.39 998.54 998.66 998.75 998.80 998.82 998.83 998.84 998.89 998.96 999.08 999.23 999.42 999.65 999.93 1000.27 1000.69 1001.20 1001.81 1002.53 1003.33 1004.20 1005.11 1006.00 1006.86 1007.66 1008.37 1008.99 1009.53 1009.99 1010.41 1010.79 1011.16
Thickness
5807 5812 5816 5814 5808 5808 5801 5807 5815 5813 5815 5820 5820 5817 5811 5805 5799 5789 5806 5814 5812 5808 5802 5794 5790 5787 5785 5783 5780 5778 5776 5774 5772 5770 5769 5767 5765 5764 5763 5761 5760 5759 5759 5758 5758 5757 5757 5757 5756
5814 5815 5813 5812 5808 5797 5797 5810 5810 5812 5817 5821 5818 5814 5809 5805 5808 5806 5808 5809 5809 5806 5801 5795 5788 5785 5782 5780 5778 5776 5774 5772 5770 5768 5767 5765 5763 5762 5760 5759 5758 5757 5756 5756 5755 5754 5754 5754 5754
5814 5815 5811 5813 5805 5800 5799 5809 5812 5817 5821 5819 5813 5813 5808 5803 5806 5807 5809 5808 5807 5803 5799 5791 5786 5783 5780 5778 5776 5774 5771 5769 5767 5766 5764 5762 5761 5759 5758 5757 5756 5755 5754 5753 5752 5752 5752 5751 5751
5814 5812 5812 5807 5800 5806 5809 5812 5816 5814 5817 5819 5814 5807 5808 5809 5810 5810 5808 5807 5805 5802 5798 5789 5783 5780 5778 5775 5773 5771 5769 5767 5764 5763 5762 5760 5758 5757 5755 5754 5753 5752 5751 5750 5749 5749 5749 5748 5748
5813 5810 5804 5800 5801 5809 5815 5817 5818 5813 5813 5815 5813 5804 5802 5808 5812 5810 5806 5804 5802 5799 5796 5788 5781 5778 5775 5773 5771 5769 5766 5764 5762 5761 5759 5757 5756 5755 5753 5752 5751 5750 5749 5748 5747 5747 5746 5746 5746
5808 5808 5798 5793 5799 5807 5814 5819 5818 5815 5814 5814 5811 5804 5801 5808 5807 5806 5805 5802 5800 5796 5793 5785 5778 5776 5773 5771 5769 5766 5764 5762 5760 5758 5757 5755 5753 5752 5751 5750 5749 5748 5747 5746 5745 5745 5744 5744 5744
5802 5802 5796 5797 5797 5801 5809 5818 5815 5814 5812 5814 5816 5805 5801 5804 5806 5805 5803 5800 5797 5794 5790 5785 5781 5775 5771 5769 5766 5764 5761 5759 5758 5756 5754 5753 5752 5751 5749 5748 5747 5746 5745 5744 5743 5742 5742 5742 5743
5808 5802 5796 5797 5795 5798 5811 5815 5817 5814 5812 5821 5819 5806 5801 5803 5805 5803 5799 5796 5793 5789 5787 5783 5781 5778 5774 5770 5765 5762 5759 5757 5755 5753 5752 5751 5750 5749 5748 5747 5745 5744 5743 5742 5741 5740 5740 5740 5740
5804 5794 5791 5796 5796 5800 5811 5810 5815 5821 5816 5815 5817 5815 5813 5809 5804 5798 5793 5790 5787 5784 5783 5781 5779 5777 5774 5771 5765 5761 5758 5756 5754 5752 5750 5750 5752 5751 5748 5746 5743 5741 5741 5740 5739 5738 5737 5738 5738
5797 5788 5793 5802 5805 5805 5808 5808 5811 5811 5807 5807 5808 5809 5809 5803 5798 5793 5789 5786 5783 5781 5780 5780 5778 5775 5773 5770 5765 5762 5760 5756 5755 5753 5751 5751 5750 5748 5747 5743 5741 5739 5738 5737 5736 5735 5736 5737 5739
5794 5790 5797 5802 5806 5806 5805 5808 5813 5806 5802 5807 5805 5803 5802 5798 5796 5793 5790 5788 5785 5782 5779 5778 5776 5773 5771 5767 5764 5761 5759 5755 5753 5751 5749 5748 5748 5747 5746 5744 5741 5739 5737 5737 5735 5735 5737 5737 5737
5790 5792 5795 5799 5804 5803 5803 5806 5806 5806 5807 5816 5815 5809 5802 5797 5794 5792 5790 5787 5784 5781 5778 5777 5774 5770 5768 5765 5762 5759 5757 5754 5752 5748 5747 5746 5746 5744 5743 5742 5740 5738 5737 5734 5734 5733 5733 5733 5733
5784 5788 5794 5798 5801 5803 5802 5801 5801 5803 5812 5815 5812 5805 5800 5797 5795 5794 5791 5787 5783 5778 5775 5774 5771 5767 5764 5761 5759 5757 5754 5753 5749 5746 5744 5743 5743 5742 5740 5738 5736 5736 5734 5733 5731 5730 5729 5729 5729
5787 5788 5791 5795 5797 5799 5795 5798 5798 5801 5809 5806 5803 5799 5799 5796 5794 5791 5787 5783 5780 5776 5773 5771 5768 5764 5761 5758 5756 5754 5752 5748 5747 5744 5742 5740 5740 5738 5737 5735 5733 5732 5730 5729 5728 5727 5726 5726 5726
5784 5779 5784 5791 5794 5797 5794 5787 5792 5801 5803 5797 5796 5795 5794 5793 5791 5787 5785 5781 5778 5774 5771 5767 5765 5762 5759 5757 5755 5752 5750 5747 5745 5742 5739 5736 5736 5734 5733 5732 5730 5729 5727 5725 5724 5723 5723 5722 5722
5777 5772 5771 5786 5790 5793 5784 5776 5790 5799 5795 5791 5791 5789 5787 5787 5787 5786 5784 5780 5777 5773 5768 5765 5764 5760 5756 5754 5751 5750 5748 5745 5743 5740 5737 5734 5732 5730 5729 5729 5728 5726 5725 5724 5722 5721 5720 5719 5718
5769 5764 5768 5778 5788 5787 5781 5776 5787 5794 5790 5786 5786 5785 5783 5782 5783 5783 5782 5778 5775 5771 5766 5762 5761 5757 5754 5751 5749 5747 5744 5742 5740 5738 5736 5732 5729 5727 5727 5726 5724 5723 5722 5721 5720 5718 5717 5715 5713
5761 5765 5766 5769 5780 5779 5774 5775 5782 5787 5785 5782 5782 5781 5779 5778 5778 5779 5778 5775 5772 5768 5765 5761 5758 5755 5752 5750 5746 5744 5742 5740 5738 5736 5732 5730 5727 5725 5723 5723 5720 5720 5719 5717 5715 5713 5711 5711 5710
5767 5763 5762 5769 5779 5772 5769 5771 5777 5782 5781 5779 5778 5777 5776 5776 5778 5777 5774 5771 5768 5764 5761 5758 5755 5752 5749 5747 5745 5741 5739 5738 5735 5733 5730 5727 5724 5723 5720 5720 5717 5716 5715 5713 5713 5710 5708 5707 5707
5760 5756 5759 5766 5774 5767 5765 5766 5775 5778 5777 5777 5775 5773 5773 5772 5772 5770 5768 5767 5764 5760 5758 5755 5752 5750 5747 5745 5743 5741 5738 5736 5734 5731 5727 5724 5722 5719 5718 5715 5715 5713 5711 5709 5707 5706 5706 5705 5703
5753 5755 5757 5758 5764 5766 5760 5758 5768 5774 5777 5775 5774 5773 5773 5770 5767 5764 5762 5761 5760 5757 5755 5754 5750 5747 5745 5743 5740 5737 5734 5732 5730 5727 5725 5722 5719 5717 5714 5712 5711 5709 5709 5706 5703 5702 5700 5699 5699
5748 5761 5759 5755 5751 5753 5756 5745 5761 5768 5767 5767 5768 5769 5769 5768 5766 5763 5760 5757 5756 5755 5754 5751 5747 5744 5742 5740 5738 5734 5731 5728 5727 5725 5723 5720 5717 5714 5711 5709 5707 5706 5706 5703 5701 5700 5698 5695 5695
5755 5763 5757 5754 5750 5747 5753 5744 5756 5764 5758 5761 5763 5765 5766 5765 5763 5760 5758 5756 5755 5753 5751 5748 5744 5741 5739 5737 5734 5730 5728 5727 5725 5723 5719 5716 5714 5711 5709 5706 5704 5702 5701 5699 5697 5695 5694 5693 5692
5757 5753 5750 5750 5748 5731 5746 5740 5743 5757 5758 5759 5761 5761 5761 5761 5760 5757 5755 5754 5751 5750 5748 5745 5740 5738 5736 5734 5731 5728 5725 5723 5720 5718 5716 5714 5712 5709 5706 5703 5701 5699 5697 5695 5692 5690 5689 5689 5688
5748 5736 5726 5725 5727 5733 5750 5738 5743 5757 5760 5758 5757 5757 5758 5757 5755 5752 5750 5748 5746 5744 5743 5741 5738 5734 5732 5730 5728 5725 5722 5719 5717 5715 5713 5711 5710 5707 5703 5700 5697 5695 5693 5691 5689 5686 5686 5685 5683
5742 5738 5723 5716 5723 5736 5741 5734 5747 5756 5756 5756 5755 5755 5753 5752 5750 5747 5746 5744 5742 5740 5738 5737 5734 5731 5729 5727 5724 5722 5720 5718 5716 5714 5712 5710 5708 5706 5702 5697 5694 5692 5689 5687 5684 5684 5682 5681 5679
5737 5739 5748 5734 5733 5726 5733 5740 5743 5749 5747 5747 5748 5749 5747 5746 5744 5742 5741 5740 5738 5736 5734 5733 5730 5728 5726 5723 5721 5718 5716 5714 5713 5711 5709 5708 5705 5703 5699 5696 5692 5689 5687 5684 5682 5681 5679 5678 5677
5746 5743 5735 5726 5712 5711 5724 5728 5733 5736 5738 5740 5741 5742 5742 5741 5738 5737 5736 5736 5734 5733 5731 5729 5726 5723 5721 5720 5718 5716 5713 5711 5709 5707 5705 5704 5702 5699 5696 5693 5690 5687 5685 5682 5679 5678 5676 5674 5673
5731 5730 5729 5729 5728 5713 5709 5721 5740 5738 5739 5737 5737 5737 5737 5736 5734 5733 5732 5731 5730 5728 5725 5722 5720 5719 5717 5716 5713 5711 5710 5708 5706 5703 5702 5700 5698 5696 5693 5691 5689 5686 5683 5680 5677 5676 5674 5672 5670
5735 5731 5727 5712 5713 5719 5716 5716 5737 5737 5736 5734 5732 5731 5731 5730 5730 5729 5727 5726 5724 5721 5719 5717 5716 5714 5713 5712 5709 5707 5705 5703 5701 5699 5698 5696 5694 5693 5691 5689 5687 5684 5682 5678 5676 5673 5671 5669 5667